Orbital Elements at Epoch 2459000.5 (2020-May-31.0) TDB
Reference: JPL 30 (heliocentric ecliptic J2000)
Element | Value | Uncertainty (1-sigma) | Units |
e | .5730202570724576 | 0.00013626 | |
a | 2.390727284743155 | 0.00077851 | au |
q | 1.020792121449494 | 6.6525e-06 | au |
i | 5.341249915267865 | 0.00092723 | deg |
node | 246.379963632791 | 0.00021581 | deg |
peri | 162.93053729844 | 0.00072946 | deg |
M | 53.10827415582909 | 0.0259 | deg |
tp | 2458801.316586089654 (2019-Nov-13.81658609) | 0.00015444 | TDB |
period | 1350.185637690395 3.70 | 0.6595 0.001806 | d yr |
n | .2666300025349181 | 0.00013024 | deg/d |
Q | 3.760662448036817 | 0.0012246 | au |
|
| | Orbit Determination Parameters
Additional Information
|